[[{"header":{"parameterUnit":"m.s-1","parameterCategory":2,"la1":30.2991,"la2":30.254,"lo1":-89.0895,"lo2":-89.0444,"dy":0.0017,"dx":0.0017,"nx":28,"ny":28,"refTime":"2025-08-15T09:00:00:Z","depth":"0","parameterNumber":2,"parameterNumberName":"U-component_of_CURRENTS"},"data":[0,0,0,0,0,0,0,0,0,0,0,0,0,0,0,0,0,0,0,0,0,0,0,0,0,0,0,0,0,0,0,0,0,0,0,0,0,0,0,0,0,0,0,0,0,0,0,0,0,0,0,0,0,0,0,0,0,0,0.3002,0.3002,0,0.2972,0.2971,0.297,0.2962,0.2962,0.2963,0.2964,0.2898,0.2896,0.2893,0,0,0,0,0,0,0,0,0,0,0,0,0,0.2996,0.2996,0.3002,0.3002,0.3002,0.2972,0.2971,0.297,0.2961,0.2962,0.2963,0.2964,0.2899,0.2896,0.2893,0,0,0,0,0,0,0,0,0,0,0,0,0,0.2979,0.2996,0.3002,0.2999,0.2999,0.2972,0.2971,0.2969,0.2961,0.2962,0.2964,0.2965,0.29,0.2896,0.2893,0.2848,0,0,0.2882,0.288,0,0,0,0,0,0,0,0,0.298,0.2979,0.2999,0.2999,0.2999,0.2977,0.2945,0.2929,0.2961,0.2969,0.2964,0.2965,0.2924,0.2919,0.2902,0.2845,0.2842,0.2881,0.2879,0.2878,0.2877,0,0,0,0,0,0,0,0.2982,0.298,0.2984,0.3,0.2999,0.298,0.2979,0.2941,0.2935,0.2968,0.2969,0.2975,0.2924,0.2906,0.2901,0.2841,0.2881,0.2878,0.2876,0.2875,0.2782,0.2782,0,0,0,0,0,0,0.2999,0.2981,0.2985,0.2983,0.2999,0.298,0.2978,0.2978,0.2937,0.2934,0.2974,0.2975,0.2912,0.2905,0.2899,0.287,0.2878,0.2874,0.2872,0.2782,0.2782,0.2782,0,0,0,0,0,0,0.2999,0.3,0.2986,0.2987,0.2985,0.298,0.2979,0.2977,0.2965,0.2943,0.2938,0.2967,0.2912,0.2904,0.2872,0.2867,0.2873,0.2869,0.2782,0.2782,0.2782,0.2796,0,0,0,0,0,0,0.2999,0.2999,0.2995,0.2988,0.2986,0.2968,0.2978,0.2976,0.297,0.297,0.2934,0.2929,0.2912,0.2878,0.2869,0.2862,0.2866,0.2783,0.2782,0.2782,0.2796,0.2796,0.2796,0,0,0,0,0,0.2999,0.2981,0.2994,0.2995,0.2982,0.2968,0.2963,0.296,0.2969,0.2954,0.294,0.293,0.2869,0.2874,0.2863,0.2856,0.2783,0.2782,0.2782,0.2796,0.2796,0.2796,0,0,0,0,0,0,0.2965,0.2979,0.2993,0.2979,0.2979,0.2969,0.2953,0.2958,0.2934,0.2937,0.2918,0.291,0.2886,0.2865,0.2872,0.2829,0.2827,0.2824,0.2841,0.2841,0.2841,0.2851,0.2863,0,0,0,0,0,0.2961,0.2955,0.2969,0.2955,0.2958,0.2958,0.2951,0.2954,0.2941,0.2931,0.2909,0.2889,0.2871,0.2853,0.283,0.2794,0.2809,0.2785,0.2785,0.2786,0.2787,0.2808,0.281,0.278,0.278,0.278,0,0,0.2943,0.2951,0.2947,0.2948,0.2947,0.294,0.2954,0.2945,0.2936,0.2926,0.2894,0.2886,0.2864,0.2836,0.2822,0.2817,0.2805,0.2785,0.2785,0.2787,0.2807,0.2811,0.2813,0.2779,0.2779,0.2779,0,0,0.2905,0.2916,0.2903,0.2907,0.2917,0.2918,0.292,0.2916,0.2911,0.2886,0.2889,0.2881,0.2831,0.2827,0.2817,0.28,0.2811,0.2791,0.2791,0.2811,0.2814,0.2817,0.2857,0.2863,0.2785,0.2785,0.2785,0,0.2887,0.2876,0.2893,0.2887,0.2891,0.2912,0.2902,0.2895,0.2879,0.2878,0.2877,0.2848,0.283,0.2818,0.2817,0.2801,0.2822,0.2793,0.2813,0.2816,0.2819,0.2859,0.2866,0.2786,0.2786,0.2786,0.2786,0,0.2844,0.2842,0.2833,0.284,0.2842,0.2833,0.285,0.2845,0.2849,0.285,0.2843,0.283,0.2819,0.2813,0.2806,0.2815,0.2829,0.2818,0.2817,0.2823,0.2865,0.2872,0.2787,0.2787,0.2786,0.2786,0,0,0.2798,0.2802,0.2803,0.2807,0.2822,0.282,0.2816,0.2819,0.2825,0.2816,0.2821,0.2802,0.2818,0.2809,0.281,0.2823,0.2866,0.2827,0.2828,0.2875,0.2931,0.3003,0.3017,0.2861,0.2862,0.2863,0.296,0,0.2765,0.2743,0.2759,0.2746,0.2741,0.2773,0.277,0.2783,0.2791,0.2798,0.2812,0.2811,0.2809,0.2816,0.283,0.2858,0.2882,0.2842,0.291,0.2913,0.2982,0.3026,0.2974,0.3061,0.2966,0.2968,0.2968,0,0.2724,0.272,0.2695,0.2716,0.2719,0.2716,0.2739,0.2742,0.2769,0.278,0.2798,0.2813,0.284,0.2835,0.2896,0.2873,0.2903,0.2925,0.2929,0.2995,0.2997,0.3035,0.3077,0.2816,0.2979,0.2978,0.2977,0,0.2683,0.2682,0.2661,0.2664,0.2682,0.2686,0.2703,0.2731,0.2749,0.2777,0.2801,0.2828,0.2858,0.2892,0.2954,0.2923,0.3036,0.2996,0.3091,0.3097,0.3065,0.3068,0.2869,0.3039,0.3039,0.3039,0.3038,0,0.2637,0.2627,0.2639,0.263,0.2626,0.2658,0.2668,0.269,0.2735,0.2761,0.2794,0.283,0.2874,0.2945,0.2977,0.3085,0.3061,0.3113,0.3131,0.3072,0.3073,0.2856,0.2793,0.3042,0.3041,0.3041,0.304,0,0.2579,0.2587,0.2573,0.2591,0.2601,0.26,0.2653,0.2666,0.2717,0.2758,0.2774,0.285,0.2945,0.3017,0.3094,0.3135,0.3114,0.3249,0.3197,0.3208,0.3044,0.299,0.2888,0.2816,0.3359,0.3361,0.3363,0,0.2542,0.252,0.2538,0.2541,0.2544,0.2561,0.2579,0.2641,0.2666,0.277,0.2789,0.2903,0.2985,0.3165,0.3253,0.3365,0.3183,0.3375,0.3301,0.3045,0.2995,0.2871,0.2806,0.3264,0.3265,0.3266,0.3266,0,0.2468,0.2473,0.2465,0.2475,0.2489,0.2509,0.2544,0.2572,0.2653,0.2723,0.2823,0.2907,0.3093,0.32,0.3372,0.3418,0.3182,0.3399,0.3121,0.2913,0.2776,0.2712,0.3195,0.3274,0.3273,0.3273,0.3272,0.3272,0.2421,0.2398,0.2399,0.2406,0.2428,0.2454,0.2471,0.2532,0.2605,0.2706,0.281,0.2936,0.3055,0.3295,0.3328,0.3239,0.3252,0.3117,0.308,0.2979,0.2872,0.3405,0.3513,0.3514,0.3514,0.3515,0.3515,0,0.236,0.2343,0.2337,0.2354,0.2369,0.2399,0.2444,0.2465,0.2548,0.2682,0.2794,0.2893,0.2958,0.2998,0.2998,0.2892,0.2776,0.2749,0.247,0.2432,0.2872,0.2822,0.2799,0.2799,0.2799,0.28,0.28,0.28,0.2335,0.2293,0.2288,0.2292,0.2314,0.2325,0.2349,0.2391,0.2479,0.2574,0.2649,0.271,0.2666,0.2566,0.2379,0.2347,0.2084,0.2106,0.2007,0.2183,0.2207,0.2231,0.2154,0.1992,0.1991,0.1463,0.1459,0.1456]},{"header":{"parameterUnit":"m.s-1","parameterCategory":2,"la1":30.2991,"la2":30.254,"lo1":-89.0895,"lo2":-89.0444,"dy":0.0017,"dx":0.0017,"nx":28,"ny":28,"refTime":"2025-08-15T09:00:00:Z","depth":"0","parameterNumber":3,"parameterNumberName":"V-component_of_CURRENTS"},"data":[0,0,0,0,0,0,0,0,0,0,0,0,0,0,0,0,0,0,0,0,0,0,0,0,0,0,0,0,0,0,0,0,0,0,0,0,0,0,0,0,0,0,0,0,0,0,0,0,0,0,0,0,0,0,0,0,0,0,-0.0316,-0.0316,0,-0.0376,-0.0376,-0.0377,-0.041,-0.041,-0.041,-0.041,-0.051,-0.0513,-0.0515,0,0,0,0,0,0,0,0,0,0,0,0,0,-0.0236,-0.0237,-0.0316,-0.0317,-0.0317,-0.0376,-0.0376,-0.0377,-0.041,-0.041,-0.041,-0.041,-0.0509,-0.0512,-0.0515,0,0,0,0,0,0,0,0,0,0,0,0,0,-0.028,-0.0237,-0.0316,-0.0341,-0.0344,-0.0376,-0.0376,-0.0377,-0.041,-0.041,-0.041,-0.041,-0.0508,-0.0512,-0.0516,-0.0534,0,0,-0.0527,-0.0529,0,0,0,0,0,0,0,0,-0.0277,-0.0282,-0.0337,-0.034,-0.0343,-0.0386,-0.0385,-0.0432,-0.041,-0.0384,-0.041,-0.041,-0.0473,-0.0479,-0.0488,-0.0539,-0.0543,-0.0528,-0.053,-0.0531,-0.0533,0,0,0,0,0,0,0,-0.0274,-0.028,-0.0339,-0.0337,-0.0341,-0.0352,-0.0358,-0.0394,-0.0426,-0.0386,-0.0389,-0.0397,-0.0475,-0.0485,-0.0491,-0.0545,-0.0527,-0.0531,-0.0533,-0.0535,-0.0629,-0.0629,0,0,0,0,0,0,-0.0268,-0.0277,-0.0337,-0.0341,-0.0311,-0.0353,-0.036,-0.0371,-0.0425,-0.0434,-0.0396,-0.0398,-0.0478,-0.0487,-0.0495,-0.0521,-0.0531,-0.0535,-0.0537,-0.0629,-0.0629,-0.0629,0,0,0,0,0,0,-0.0266,-0.0273,-0.0334,-0.0311,-0.0319,-0.0354,-0.0367,-0.0372,-0.0382,-0.0433,-0.0442,-0.04,-0.0479,-0.049,-0.0523,-0.0525,-0.0537,-0.054,-0.0628,-0.0629,-0.0629,-0.0572,0,0,0,0,0,0,-0.0263,-0.0272,-0.0276,-0.031,-0.032,-0.0349,-0.0367,-0.0373,-0.0387,-0.039,-0.0439,-0.0448,-0.048,-0.0518,-0.0527,-0.053,-0.0543,-0.0628,-0.0629,-0.0629,-0.0574,-0.0571,-0.0568,0,0,0,0,0,-0.026,-0.0268,-0.0276,-0.0284,-0.0326,-0.0348,-0.0354,-0.0379,-0.0387,-0.0389,-0.0422,-0.0447,-0.0528,-0.0521,-0.0532,-0.0536,-0.0628,-0.0629,-0.0629,-0.0575,-0.0571,-0.0568,0,0,0,0,0,0,-0.0234,-0.0274,-0.0283,-0.0302,-0.032,-0.0354,-0.0361,-0.0375,-0.0402,-0.0405,-0.0449,-0.0461,-0.049,-0.0523,-0.0514,-0.0566,-0.0583,-0.0585,-0.0538,-0.0535,-0.0532,-0.0519,-0.0546,0,0,0,0,0,-0.023,-0.0248,-0.0279,-0.0291,-0.03,-0.0327,-0.0339,-0.0354,-0.0383,-0.0395,-0.0427,-0.0467,-0.0501,-0.0524,-0.0557,-0.0587,-0.0615,-0.0599,-0.0596,-0.0593,-0.0592,-0.0642,-0.0643,-0.0631,-0.0631,-0.0631,0,0,-0.0221,-0.0246,-0.0255,-0.0287,-0.0303,-0.0311,-0.0335,-0.0349,-0.0356,-0.0403,-0.0421,-0.0454,-0.0505,-0.0534,-0.0551,-0.0563,-0.0607,-0.0594,-0.0591,-0.0591,-0.0643,-0.0644,-0.0645,-0.0632,-0.0631,-0.0631,0,0,-0.0207,-0.0234,-0.0238,-0.0255,-0.028,-0.0298,-0.0299,-0.0328,-0.0342,-0.0364,-0.0398,-0.043,-0.0482,-0.0518,-0.0544,-0.0547,-0.0585,-0.056,-0.0542,-0.059,-0.0591,-0.0593,-0.0605,-0.0608,-0.0564,-0.0564,-0.0564,0,-0.0191,-0.0207,-0.024,-0.0247,-0.0257,-0.0288,-0.0286,-0.0306,-0.0341,-0.0353,-0.0363,-0.0436,-0.0475,-0.0518,-0.0518,-0.054,-0.0563,-0.0547,-0.0585,-0.0588,-0.059,-0.0603,-0.0607,-0.0562,-0.0562,-0.0562,-0.0562,0,-0.018,-0.019,-0.0193,-0.0214,-0.0227,-0.0233,-0.0262,-0.0274,-0.0293,-0.0315,-0.0352,-0.0403,-0.0449,-0.0466,-0.0493,-0.0532,-0.0539,-0.0569,-0.0589,-0.0588,-0.0601,-0.0606,-0.0558,-0.0559,-0.056,-0.056,0,0,-0.0157,-0.0178,-0.018,-0.018,-0.021,-0.0219,-0.0231,-0.0253,-0.0257,-0.0297,-0.031,-0.0372,-0.0399,-0.0431,-0.0472,-0.0515,-0.0542,-0.0546,-0.0549,-0.0548,-0.0625,-0.0528,-0.0524,-0.0583,-0.0584,-0.0585,-0.0618,0,-0.0136,-0.013,-0.0153,-0.0148,-0.0148,-0.018,-0.0185,-0.0211,-0.0236,-0.0256,-0.0317,-0.0345,-0.0388,-0.0404,-0.0456,-0.0522,-0.0558,-0.0529,-0.0636,-0.0639,-0.0545,-0.0528,-0.0408,-0.0419,-0.0624,-0.0625,-0.0625,0,-0.0123,-0.0122,-0.0104,-0.0114,-0.0116,-0.0117,-0.0134,-0.0145,-0.0186,-0.0204,-0.0251,-0.0293,-0.0357,-0.0392,-0.0507,-0.0487,-0.0549,-0.06,-0.0604,-0.0538,-0.0551,-0.0461,-0.0421,-0.0499,-0.0634,-0.0633,-0.0633,0,-0.0093,-0.0095,-0.0076,-0.008,-0.0091,-0.0089,-0.0098,-0.0127,-0.0131,-0.0172,-0.0176,-0.0261,-0.0293,-0.0397,-0.0485,-0.0508,-0.0596,-0.0647,-0.0615,-0.0609,-0.0538,-0.0522,-0.0578,-0.0728,-0.0728,-0.0728,-0.0728,0,-0.0069,-0.006,-0.0058,-0.0048,-0.0031,-0.0055,-0.004,-0.0061,-0.008,-0.0076,-0.0147,-0.0158,-0.0299,-0.0361,-0.0464,-0.0528,-0.0583,-0.0598,-0.0611,-0.0511,-0.0493,-0.0583,-0.0652,-0.0729,-0.0729,-0.0728,-0.0728,0,-0.004,-0.0037,-0.0019,-0.0015,-0.0014,-0.0002,0.0001,0.001,-0.0012,-0.0008,-0.0016,-0.0085,-0.0147,-0.0258,-0.0402,-0.0472,-0.0567,-0.0573,-0.0415,-0.0408,-0.0444,-0.0513,-0.0568,-0.0582,-0.0553,-0.0551,-0.0549,0,-0.0022,-0.0007,0.0013,0.0031,0.0035,0.005,0.0063,0.0045,0.0058,0.0042,0.0049,0.0006,-0.0005,-0.0141,-0.0241,-0.0354,-0.0473,-0.034,-0.0366,-0.0409,-0.0499,-0.0547,-0.0562,-0.0253,-0.0249,-0.0246,-0.0243,0,0.0006,0.0017,0.0039,0.0081,0.0101,0.0123,0.0141,0.016,0.0149,0.0171,0.0191,0.0187,0.0112,0.0094,-0.0023,-0.0128,-0.0334,-0.0273,-0.0381,-0.0306,-0.0302,-0.0333,-0.0256,-0.0213,-0.0216,-0.0218,-0.022,-0.0221,0.003,0.0049,0.0085,0.0119,0.0156,0.0193,0.0219,0.0258,0.0302,0.0372,0.0349,0.0458,0.041,0.0289,0.0111,-0.0046,-0.013,-0.0103,-0.0193,-0.0246,-0.0223,-0.0044,0.0024,0.0023,0.0021,0.002,0.0019,0,0.0049,0.0069,0.0114,0.0161,0.0215,0.022,0.0268,0.0317,0.0397,0.0559,0.0633,0.0825,0.0703,0.0521,0.029,0.0084,-0.0038,-0.0047,-0.0122,-0.0153,-0.0039,0.0013,0.0162,0.0162,0.0162,0.0162,0.0162,0.0162,0.0061,0.0092,0.0108,0.019,0.0236,0.0299,0.0328,0.0429,0.0572,0.0854,0.1093,0.1239,0.1184,0.0567,0.0159,0.004,-0.0158,-0.0139,-0.0299,-0.0256,-0.0269,-0.0283,-0.025,-0.0159,-0.0159,-0.0329,-0.0331,-0.0333]}],[{"header":{"parameterUnit":"m.s-1","parameterCategory":2,"la1":30.2991,"la2":30.254,"lo1":-89.0895,"lo2":-89.0444,"dy":0.0017,"dx":0.0017,"nx":28,"ny":28,"refTime":"2025-08-15T09:00:00:Z","depth":"2","parameterNumber":2,"parameterNumberName":"U-component_of_CURRENTS"},"data":[0,0,0,0,0,0,0,0,0,0,0,0,0,0,0,0,0,0,0,0,0,0,0,0,0,0,0,0,0,0,0,0,0,0,0,0,0,0,0,0,0,0,0,0,0,0,0,0,0,0,0,0,0,0,0,0,0,0,0.2829,0.283,0,0.2878,0.2878,0.2878,0.2887,0.2888,0.2888,0.2888,0.2962,0.2964,0.2966,0,0,0,0,0,0,0,0,0,0,0,0,0,0.2702,0.2705,0.2829,0.283,0.2831,0.2878,0.2878,0.2878,0.2887,0.2888,0.2888,0.2888,0.2961,0.2964,0.2966,0,0,0,0,0,0,0,0,0,0,0,0,0,0.275,0.2705,0.2829,0.2846,0.2848,0.2878,0.2878,0.2878,0.2887,0.2888,0.2888,0.2888,0.2961,0.2963,0.2966,0.2981,0,0,0.2975,0.2976,0,0,0,0,0,0,0,0,0.2747,0.2754,0.2842,0.2845,0.2847,0.2881,0.2861,0.2916,0.2887,0.2867,0.2888,0.2888,0.2941,0.2945,0.2946,0.2984,0.2987,0.2975,0.2977,0.2978,0.2979,0,0,0,0,0,0,0,0.2744,0.2752,0.2843,0.2843,0.2847,0.2836,0.2843,0.287,0.2899,0.2869,0.2871,0.2884,0.2942,0.2943,0.2948,0.2988,0.2975,0.2977,0.2979,0.298,0.3103,0.3105,0,0,0,0,0,0,0.2751,0.2749,0.2842,0.2845,0.2803,0.2839,0.2846,0.2866,0.2898,0.2904,0.2884,0.2885,0.2938,0.2945,0.2951,0.3011,0.2978,0.2981,0.2982,0.3102,0.3104,0.3105,0,0,0,0,0,0,0.2748,0.2759,0.284,0.2802,0.2812,0.2842,0.2863,0.2867,0.2895,0.2911,0.2916,0.2912,0.2939,0.2947,0.2994,0.3012,0.2982,0.2984,0.31,0.3102,0.3104,0.3105,0,0,0,0,0,0,0.2744,0.2758,0.2788,0.2803,0.2815,0.2881,0.2864,0.2868,0.2904,0.2906,0.2936,0.2942,0.2939,0.299,0.2997,0.3016,0.2987,0.3098,0.3101,0.3104,0.3103,0.3107,0.3111,0,0,0,0,0,0.274,0.2759,0.2789,0.2801,0.2851,0.2883,0.2888,0.2905,0.2906,0.2928,0.2943,0.2942,0.3013,0.2993,0.3001,0.3021,0.3096,0.31,0.3103,0.3101,0.3106,0.3111,0,0,0,0,0,0,0.2707,0.2764,0.2795,0.2831,0.2875,0.2887,0.2912,0.2923,0.2951,0.2957,0.2962,0.2969,0.3019,0.3027,0.3005,0.3068,0.3056,0.3061,0.3052,0.3057,0.306,0.3058,0.2989,0,0,0,0,0,0.2721,0.2761,0.2811,0.2845,0.2872,0.2902,0.2922,0.2937,0.2959,0.2971,0.2988,0.3011,0.3036,0.3052,0.3079,0.3114,0.3128,0.3134,0.3138,0.3141,0.3147,0.32,0.3209,0.3117,0.3117,0.3117,0,0,0.2707,0.2757,0.2772,0.2844,0.2877,0.2913,0.2913,0.2954,0.2972,0.2977,0.3009,0.3033,0.3052,0.3086,0.3109,0.3096,0.3172,0.3146,0.3147,0.3152,0.3205,0.3213,0.3221,0.3119,0.3119,0.3118,0,0,0.2712,0.2761,0.2804,0.2847,0.2922,0.2935,0.2957,0.2994,0.3006,0.304,0.3049,0.3088,0.3118,0.3135,0.3145,0.3194,0.3197,0.3205,0.3213,0.3263,0.3271,0.3278,0.3286,0.3294,0.3197,0.3197,0.3197,0,0.2694,0.2769,0.2818,0.2877,0.2904,0.295,0.2984,0.3004,0.3046,0.3053,0.3055,0.3113,0.3138,0.3175,0.3188,0.3201,0.3217,0.3186,0.3267,0.3274,0.3281,0.3288,0.3297,0.3198,0.3198,0.3198,0.3198,0,0.2745,0.2802,0.2828,0.2917,0.2948,0.2987,0.3024,0.3052,0.3065,0.3077,0.3124,0.3156,0.3185,0.3204,0.3206,0.3269,0.3258,0.3269,0.3248,0.329,0.3295,0.3304,0.3198,0.3198,0.3198,0.3198,0,0,0.2695,0.2832,0.2847,0.2888,0.2971,0.299,0.3027,0.3062,0.3075,0.3117,0.3135,0.3188,0.3207,0.3223,0.3246,0.3291,0.3349,0.3299,0.3302,0.3295,0.3435,0.3163,0.3147,0.3374,0.3377,0.3378,0.3409,0,0.2721,0.2827,0.2881,0.2939,0.2983,0.3019,0.3036,0.307,0.3092,0.3121,0.3163,0.3193,0.3213,0.3229,0.3282,0.3341,0.3377,0.3338,0.3407,0.3408,0.3152,0.3149,0.2966,0.2955,0.3418,0.3419,0.342,0,0.2765,0.2827,0.29,0.2951,0.2969,0.2993,0.3021,0.3045,0.3093,0.3107,0.3153,0.3186,0.3257,0.327,0.338,0.3354,0.3398,0.3437,0.3439,0.3192,0.3152,0.2995,0.2954,0.3435,0.3434,0.3433,0.3432,0,0.2733,0.2829,0.2881,0.2908,0.2975,0.2984,0.3003,0.3041,0.3048,0.3107,0.3117,0.3202,0.3233,0.3326,0.3375,0.3399,0.3474,0.3518,0.3313,0.3294,0.3152,0.3113,0.3601,0.3601,0.3601,0.36,0.36,0,0.2747,0.2786,0.2869,0.2899,0.2912,0.296,0.2968,0.2995,0.3032,0.3034,0.311,0.3113,0.3253,0.3295,0.3373,0.332,0.3468,0.3299,0.3279,0.3139,0.3101,0.3537,0.353,0.3602,0.3601,0.3601,0.3601,0,0.2726,0.2797,0.2841,0.29,0.291,0.2917,0.2937,0.2934,0.2978,0.299,0.3004,0.3061,0.3065,0.3149,0.3266,0.3256,0.3281,0.3231,0.3013,0.2962,0.3082,0.3075,0.303,0.3021,0.3013,0.3006,0.3001,0,0.2735,0.2763,0.2825,0.2823,0.2851,0.2864,0.2858,0.2903,0.2894,0.2931,0.2919,0.2921,0.2834,0.2838,0.2857,0.2864,0.3034,0.2691,0.2687,0.3035,0.3023,0.3028,0.3032,0.2529,0.252,0.2513,0.2507,0,0.2707,0.2735,0.276,0.2756,0.2756,0.2742,0.2739,0.2707,0.2744,0.2721,0.2636,0.2562,0.2533,0.2383,0.2357,0.2378,0.2666,0.2528,0.2996,0.2644,0.2548,0.254,0.2564,0.2441,0.2447,0.2452,0.2456,0.2458,0.2653,0.2654,0.2665,0.2627,0.263,0.2547,0.2462,0.2429,0.2332,0.2209,0.2292,0.2107,0.215,0.1917,0.1909,0.1964,0.2148,0.2151,0.2183,0.222,0.2098,0.1987,0.1753,0.1755,0.1758,0.176,0.1761,0,0.2529,0.2531,0.2514,0.2435,0.2334,0.2409,0.2317,0.215,0.1931,0.1907,0.1762,0.1541,0.1412,0.1504,0.1475,0.1491,0.1601,0.1463,0.163,0.1692,0.1748,0.1612,0.1134,0.1132,0.113,0.1129,0,0,0.2462,0.2388,0.2356,0.212,0.2077,0.1894,0.1801,0.1607,0.1512,0.1243,0.1169,0.1201,0.1341,0.1154,0.119,0.1151,0.1413,0.1115,0.1614,0.1864,0.1918,0.2132,0.1985,0,0,0,0,0]},{"header":{"parameterUnit":"m.s-1","parameterCategory":2,"la1":30.2991,"la2":30.254,"lo1":-89.0895,"lo2":-89.0444,"dy":0.0017,"dx":0.0017,"nx":28,"ny":28,"refTime":"2025-08-15T09:00:00:Z","depth":"2","parameterNumber":3,"parameterNumberName":"V-component_of_CURRENTS"},"data":[0,0,0,0,0,0,0,0,0,0,0,0,0,0,0,0,0,0,0,0,0,0,0,0,0,0,0,0,0,0,0,0,0,0,0,0,0,0,0,0,0,0,0,0,0,0,0,0,0,0,0,0,0,0,0,0,0,0,0.0477,0.0477,0,0.0459,0.0458,0.0458,0.0426,0.0426,0.0426,0.0425,0.0346,0.0345,0.0343,0,0,0,0,0,0,0,0,0,0,0,0,0,0.0455,0.0455,0.0477,0.0477,0.0477,0.0459,0.0458,0.0458,0.0426,0.0426,0.0425,0.0425,0.0347,0.0345,0.0343,0,0,0,0,0,0,0,0,0,0,0,0,0,0.0451,0.0456,0.0477,0.046,0.0459,0.0459,0.0458,0.0458,0.0427,0.0426,0.0425,0.0425,0.0347,0.0345,0.0342,0.0339,0,0,0.0335,0.0333,0,0,0,0,0,0,0,0,0.0452,0.0452,0.0463,0.0461,0.046,0.0446,0.0422,0.0416,0.0427,0.0437,0.0425,0.0424,0.0376,0.0371,0.0367,0.0335,0.0332,0.0334,0.0333,0.0332,0.0331,0,0,0,0,0,0,0,0.0452,0.0452,0.0467,0.0463,0.0461,0.0444,0.0443,0.0421,0.0407,0.0436,0.0434,0.0435,0.0374,0.0369,0.0365,0.0331,0.0334,0.0332,0.0331,0.0329,0.0345,0.0347,0,0,0,0,0,0,0.0461,0.0453,0.0468,0.0467,0.0456,0.0445,0.0444,0.0449,0.0409,0.0403,0.0436,0.0434,0.0374,0.0368,0.0362,0.0396,0.0332,0.0329,0.0328,0.0343,0.0345,0.0348,0,0,0,0,0,0,0.046,0.0463,0.0469,0.0461,0.0461,0.0447,0.0453,0.0449,0.0445,0.041,0.0402,0.0436,0.0373,0.0365,0.036,0.039,0.0328,0.0326,0.0341,0.0344,0.0346,0.0437,0,0,0,0,0,0,0.046,0.0463,0.0468,0.0462,0.0462,0.0479,0.0454,0.045,0.0448,0.0446,0.0407,0.0399,0.0372,0.0365,0.0358,0.0386,0.0324,0.0338,0.0342,0.0346,0.0432,0.0443,0.0452,0,0,0,0,0,0.0459,0.0472,0.0468,0.047,0.047,0.048,0.0478,0.0464,0.0449,0.0456,0.0438,0.0401,0.0383,0.0364,0.0356,0.0383,0.0336,0.0341,0.0345,0.0427,0.0441,0.0452,0,0,0,0,0,0,0.047,0.047,0.0465,0.0479,0.0483,0.0475,0.0479,0.0469,0.046,0.0457,0.0417,0.0409,0.042,0.0392,0.0371,0.0402,0.0357,0.036,0.0422,0.0435,0.0445,0.0463,0.0322,0,0,0,0,0,0.0475,0.048,0.0483,0.0494,0.0499,0.049,0.049,0.0485,0.0478,0.0473,0.0453,0.0437,0.0433,0.0424,0.0414,0.0422,0.0398,0.0439,0.0449,0.0458,0.047,0.0467,0.0478,0.0362,0.0362,0.0362,0,0,0.0482,0.0483,0.0485,0.0496,0.0496,0.0518,0.0488,0.0499,0.052,0.0465,0.0486,0.047,0.0444,0.0463,0.0465,0.044,0.0479,0.0463,0.0471,0.0478,0.0472,0.0483,0.0493,0.0365,0.0364,0.0364,0,0,0.0503,0.0502,0.0516,0.0527,0.0536,0.0537,0.0544,0.0548,0.0551,0.0568,0.0545,0.0553,0.0534,0.0536,0.0529,0.059,0.0536,0.0584,0.0646,0.0643,0.0652,0.066,0.0643,0.0649,0.0587,0.0587,0.0587,0,0.0512,0.0535,0.0523,0.0547,0.0565,0.0551,0.0584,0.0589,0.0594,0.0609,0.0587,0.06,0.0575,0.0607,0.0633,0.0614,0.0594,0.0597,0.0656,0.0663,0.0669,0.065,0.0655,0.0592,0.0591,0.0591,0.059,0,0.0549,0.0571,0.0584,0.0611,0.0627,0.0654,0.0667,0.0685,0.0686,0.0694,0.0728,0.0708,0.0715,0.0715,0.0688,0.0733,0.0698,0.0669,0.0621,0.0686,0.0662,0.0666,0.0599,0.0597,0.0596,0.0595,0,0,0.0563,0.0602,0.0607,0.0636,0.0667,0.0686,0.0728,0.0766,0.08,0.0807,0.0854,0.0856,0.0846,0.084,0.0816,0.0817,0.0843,0.0767,0.0765,0.0746,0.0826,0.0716,0.0708,0.0818,0.0819,0.082,0.079,0,0.0601,0.0654,0.0666,0.0729,0.0766,0.0778,0.082,0.0851,0.0871,0.0914,0.091,0.0938,0.0893,0.0901,0.09,0.0863,0.0856,0.0853,0.077,0.0768,0.0658,0.071,0.0661,0.0623,0.0793,0.0794,0.0794,0,0.064,0.0673,0.0735,0.0799,0.0816,0.0849,0.0915,0.0952,0.1002,0.102,0.1048,0.1041,0.1063,0.1006,0.0977,0.0974,0.0912,0.0872,0.0869,0.0737,0.0664,0.0587,0.0622,0.0799,0.0799,0.0799,0.0798,0,0.0662,0.0726,0.0776,0.0799,0.0864,0.0895,0.0928,0.0983,0.1029,0.1086,0.1125,0.1138,0.1147,0.1095,0.1015,0.0996,0.0968,0.0925,0.0766,0.0757,0.0685,0.0666,0.0896,0.0896,0.0896,0.0896,0.0896,0,0.0709,0.0751,0.0787,0.082,0.0886,0.0919,0.0995,0.1031,0.11,0.1176,0.1176,0.1234,0.1168,0.1144,0.1057,0.0926,0.0995,0.0788,0.0747,0.0713,0.0699,0.0825,0.0817,0.0895,0.0895,0.0896,0.0896,0,0.0742,0.0762,0.0824,0.0883,0.09,0.0948,0.1028,0.109,0.1141,0.1242,0.1265,0.1305,0.1266,0.118,0.1094,0.0964,0.0859,0.0789,0.0744,0.0697,0.0638,0.0636,0.061,0.0606,0.0602,0.0599,0.0597,0,0.0773,0.0801,0.0858,0.0893,0.0922,0.0986,0.1041,0.1104,0.1183,0.1294,0.1358,0.1347,0.134,0.116,0.0954,0.0761,0.0799,0.057,0.0513,0.0648,0.0612,0.0615,0.0617,0.0462,0.0459,0.0457,0.0454,0,0.0829,0.0833,0.0881,0.0944,0.0997,0.1066,0.1151,0.1223,0.1322,0.1388,0.1486,0.1476,0.1285,0.1059,0.0764,0.0636,0.0594,0.0502,0.0685,0.0524,0.0502,0.0468,0.0477,0.043,0.0433,0.0434,0.0436,0.0437,0.0867,0.0896,0.0941,0.1009,0.1068,0.1158,0.1235,0.1318,0.1424,0.1517,0.1528,0.1457,0.1229,0.0787,0.058,0.0359,0.0391,0.0293,0.0306,0.032,0.029,0.0261,0.0139,0.014,0.014,0.0141,0.0141,0,0.0907,0.0934,0.1004,0.1083,0.1155,0.1172,0.1321,0.1384,0.1495,0.1501,0.1506,0.1223,0.0937,0.0717,0.0328,0.0099,0.0125,0.0053,0.0139,0.0162,0.0182,0.015,-0.0041,-0.0041,-0.0042,-0.0042,0,0,0.0931,0.0983,0.1016,0.1141,0.1195,0.13,0.1386,0.1459,0.149,0.1451,0.1357,0.1229,0.0948,0.0634,0.0358,0.0158,0.0217,0.0118,0.0275,0.0429,0.0452,0.0317,0.029,0,0,0,0,0]}],[{"header":{"parameterUnit":"m.s-1","parameterCategory":2,"la1":30.2991,"la2":30.254,"lo1":-89.0895,"lo2":-89.0444,"dy":0.0017,"dx":0.0017,"nx":28,"ny":28,"refTime":"2025-08-15T09:00:00:Z","depth":"4","parameterNumber":2,"parameterNumberName":"U-component_of_CURRENTS"},"data":[0,0,0,0,0,0,0,0,0,0,0,0,0,0,0,0,0,0,0,0,0,0,0,0,0,0,0,0,0,0,0,0,0,0,0,0,0,0,0,0,0,0,0,0,0,0,0,0,0,0,0,0,0,0,0,0,0,0,0.0398,0.0398,0,0.0401,0.0402,0.0402,0.0419,0.0418,0.0418,0.0418,0.0452,0.0453,0.0454,0,0,0,0,0,0,0,0,0,0,0,0,0,0.0426,0.0426,0.0398,0.0398,0.0397,0.0401,0.0402,0.0402,0.0419,0.0418,0.0418,0.0418,0.0451,0.0453,0.0454,0,0,0,0,0,0,0,0,0,0,0,0,0,0.0426,0.0426,0.0399,0.0401,0.0401,0.0401,0.0402,0.0402,0.0419,0.0418,0.0418,0.0418,0.0451,0.0453,0.0454,0.047,0,0,0.0459,0.046,0,0,0,0,0,0,0,0,0.0426,0.0426,0.0401,0.0401,0.04,0.0403,0.0423,0.0424,0.0419,0.0419,0.0418,0.0418,0.0434,0.0437,0.0448,0.0472,0.0473,0.0459,0.046,0.0461,0.0462,0,0,0,0,0,0,0,0.0426,0.0426,0.0406,0.04,0.04,0.0408,0.0408,0.0424,0.0434,0.0419,0.0418,0.0408,0.0435,0.0446,0.0448,0.0474,0.0459,0.0461,0.0462,0.0462,0.0586,0.0588,0,0,0,0,0,0,0.0412,0.0426,0.0406,0.0406,0.0406,0.0407,0.0408,0.0408,0.0433,0.0434,0.0409,0.0409,0.0443,0.0446,0.045,0.0522,0.0461,0.0463,0.0463,0.0583,0.0586,0.0589,0,0,0,0,0,0,0.0413,0.0411,0.0406,0.041,0.0409,0.0406,0.0407,0.0408,0.0426,0.0424,0.0427,0.0425,0.0443,0.0447,0.0466,0.0521,0.0463,0.0465,0.0581,0.0584,0.0587,0.0634,0,0,0,0,0,0,0.0414,0.0412,0.0429,0.0409,0.0408,0.0411,0.0407,0.0408,0.0417,0.0418,0.0439,0.0441,0.0443,0.0464,0.0468,0.0523,0.0466,0.0578,0.0582,0.0586,0.063,0.0639,0.0646,0,0,0,0,0,0.0415,0.0421,0.043,0.0428,0.0425,0.0411,0.0413,0.0414,0.0418,0.043,0.0439,0.0441,0.0496,0.0466,0.047,0.0527,0.0576,0.0581,0.0586,0.0626,0.0637,0.0646,0,0,0,0,0,0,0.0433,0.0422,0.0432,0.0434,0.0429,0.0411,0.0423,0.0421,0.044,0.0451,0.0449,0.0452,0.0496,0.0503,0.047,0.0579,0.0545,0.0552,0.0575,0.0585,0.0593,0.063,0.0467,0,0,0,0,0,0.0447,0.0455,0.0441,0.0445,0.0447,0.0443,0.0444,0.0445,0.0445,0.0454,0.0475,0.0502,0.0522,0.0542,0.0563,0.0611,0.0601,0.0659,0.0667,0.0674,0.071,0.0705,0.0715,0.0606,0.0606,0.0605,0,0,0.0445,0.0448,0.0447,0.0451,0.0454,0.0462,0.0445,0.0451,0.0468,0.0455,0.0508,0.0526,0.0538,0.0592,0.0616,0.0604,0.0699,0.0681,0.0686,0.0719,0.0711,0.0721,0.073,0.0609,0.0608,0.0608,0,0,0.0447,0.046,0.0473,0.0473,0.0482,0.0486,0.0488,0.0498,0.0516,0.0559,0.0556,0.0598,0.0649,0.0665,0.0676,0.0745,0.0735,0.0773,0.0854,0.0847,0.0856,0.0863,0.085,0.0856,0.0786,0.0786,0.0787,0,0.0464,0.0472,0.0472,0.0485,0.0493,0.0497,0.0514,0.0527,0.0548,0.059,0.0589,0.0683,0.0687,0.0736,0.0778,0.0765,0.0762,0.0805,0.0855,0.0863,0.0869,0.0855,0.086,0.0789,0.0789,0.0789,0.0788,0,0.0459,0.0485,0.0489,0.052,0.053,0.0542,0.0553,0.0588,0.063,0.0676,0.0757,0.0763,0.0829,0.0841,0.0839,0.0907,0.0888,0.0851,0.0822,0.0883,0.0864,0.0869,0.0793,0.0792,0.0792,0.0791,0,0,0.0457,0.049,0.0493,0.0523,0.0554,0.0557,0.0598,0.0659,0.07,0.0775,0.0849,0.0911,0.0958,0.0974,0.0967,0.0985,0.1021,0.0968,0.0966,0.0943,0.1015,0.0925,0.0921,0.0993,0.0995,0.0996,0.0976,0,0.0472,0.0509,0.052,0.0563,0.0589,0.0611,0.0647,0.0705,0.0767,0.0845,0.0905,0.0982,0.0989,0.1028,0.1049,0.1031,0.1042,0.1031,0.0974,0.0972,0.0873,0.0927,0.1001,0.098,0.0981,0.0982,0.0982,0,0.0462,0.0502,0.0549,0.0608,0.0621,0.0655,0.0725,0.0758,0.0864,0.0924,0.1026,0.1071,0.115,0.1118,0.114,0.1139,0.1107,0.1078,0.1074,0.0987,0.0893,0.0912,0.0991,0.099,0.099,0.0989,0.0989,0,0.0455,0.0514,0.0563,0.0576,0.0643,0.0686,0.0737,0.0822,0.0871,0.0996,0.1065,0.1149,0.1195,0.1189,0.1156,0.1168,0.1135,0.1118,0.0998,0.099,0.1052,0.1045,0.1119,0.1119,0.1119,0.1119,0.1119,0,0.0457,0.05,0.0574,0.0596,0.0663,0.0715,0.0793,0.0847,0.0951,0.1018,0.1126,0.116,0.1223,0.1208,0.1173,0.1098,0.114,0.1038,0.0989,0.1071,0.1066,0.1054,0.1047,0.1119,0.1119,0.1119,0.1119,0,0.0453,0.0489,0.055,0.0636,0.0662,0.0722,0.0826,0.088,0.0983,0.1056,0.1112,0.1211,0.1204,0.1188,0.1151,0.1104,0.1033,0.0975,0.1062,0.1013,0.0901,0.0897,0.09,0.0897,0.0895,0.0892,0.0891,0,0.0448,0.0487,0.0566,0.0592,0.0646,0.0733,0.0783,0.0896,0.0931,0.1047,0.1064,0.113,0.1159,0.1053,0.1042,0.096,0.0927,0.0903,0.0944,0.0932,0.0884,0.0884,0.0883,0.0886,0.0886,0.0885,0.0884,0,0.0464,0.0501,0.0543,0.059,0.0649,0.0698,0.0771,0.0804,0.0899,0.0993,0.1018,0.1041,0.1017,0.1002,0.0927,0.0861,0.0944,0.0876,0.0882,0.0922,0.0914,0.0869,0.0872,0.0875,0.0877,0.0877,0.0878,0,0.0462,0.0496,0.0532,0.0574,0.0618,0.0639,0.0699,0.0737,0.0795,0.0908,0.0894,0.0945,0.0996,0.0943,0.0861,0.0809,0.0821,0.0811,0.0821,0.0832,0.0814,0.0794,0.0697,0,0,0,0,0,0.0437,0.0472,0.051,0.053,0.0564,0.0591,0.0655,0.071,0.0787,0.0786,0.0845,0.0814,0.0802,0.0825,0.0755,0.0807,0.0799,0.0723,0.0788,0.0824,0.0835,0.0818,0,0,0,0,0,0,0.042,0.0463,0.0492,0.0467,0.0475,0.051,0.056,0.0629,0.0616,0.0703,0.0692,0.0761,0.0739,0.0817,0.0737,0.0734,0.0759,0.0741,0.0739,0.0818,0.0828,0.0837,0.0822,0,0,0,0,0]},{"header":{"parameterUnit":"m.s-1","parameterCategory":2,"la1":30.2991,"la2":30.254,"lo1":-89.0895,"lo2":-89.0444,"dy":0.0017,"dx":0.0017,"nx":28,"ny":28,"refTime":"2025-08-15T09:00:00:Z","depth":"4","parameterNumber":3,"parameterNumberName":"V-component_of_CURRENTS"},"data":[0,0,0,0,0,0,0,0,0,0,0,0,0,0,0,0,0,0,0,0,0,0,0,0,0,0,0,0,0,0,0,0,0,0,0,0,0,0,0,0,0,0,0,0,0,0,0,0,0,0,0,0,0,0,0,0,0,0,0.032,0.032,0,0.0301,0.03,0.03,0.0296,0.0296,0.0297,0.0297,0.0274,0.0273,0.0271,0,0,0,0,0,0,0,0,0,0,0,0,0,0.0314,0.0314,0.032,0.032,0.032,0.0301,0.03,0.0299,0.0296,0.0296,0.0297,0.0297,0.0274,0.0273,0.0271,0,0,0,0,0,0,0,0,0,0,0,0,0,0.0305,0.0314,0.032,0.0319,0.0319,0.0301,0.03,0.0299,0.0296,0.0296,0.0297,0.0298,0.0274,0.0273,0.0271,0.0246,0,0,0.0266,0.0265,0,0,0,0,0,0,0,0,0.0305,0.0304,0.0319,0.0319,0.0319,0.0305,0.029,0.0283,0.0295,0.03,0.0297,0.0298,0.0286,0.0283,0.0272,0.0245,0.0244,0.0266,0.0265,0.0264,0.0264,0,0,0,0,0,0,0,0.0306,0.0305,0.0308,0.0319,0.0319,0.0306,0.0306,0.0288,0.0286,0.03,0.03,0.0304,0.0285,0.0274,0.0272,0.0243,0.0266,0.0265,0.0264,0.0263,0.0184,0.0183,0,0,0,0,0,0,0.0317,0.0306,0.0309,0.0308,0.0318,0.0306,0.0305,0.0305,0.0286,0.0285,0.0304,0.0304,0.0276,0.0274,0.0271,0.0249,0.0264,0.0263,0.0262,0.0185,0.0184,0.0183,0,0,0,0,0,0,0.0317,0.0318,0.031,0.031,0.0308,0.0306,0.0306,0.0305,0.0303,0.029,0.0288,0.0305,0.0277,0.0273,0.025,0.0248,0.0262,0.0261,0.0187,0.0185,0.0184,0.0199,0,0,0,0,0,0,0.0317,0.0317,0.0326,0.031,0.0309,0.0303,0.0305,0.0304,0.0305,0.0306,0.029,0.0288,0.0277,0.0253,0.0249,0.0246,0.0259,0.0188,0.0186,0.0184,0.02,0.0198,0.0197,0,0,0,0,0,0.0317,0.0322,0.0326,0.0327,0.0319,0.0303,0.0301,0.0299,0.0305,0.03,0.0284,0.0289,0.0237,0.0251,0.0246,0.0243,0.0189,0.0187,0.0184,0.0201,0.0199,0.0197,0,0,0,0,0,0,0.0323,0.0322,0.0326,0.0332,0.0322,0.0305,0.0309,0.0302,0.0285,0.0291,0.0275,0.0271,0.0249,0.0237,0.0253,0.0211,0.0214,0.021,0.0228,0.0226,0.0224,0.0243,0.0258,0,0,0,0,0,0.033,0.0335,0.0327,0.0332,0.0332,0.0321,0.0318,0.0313,0.0297,0.0291,0.028,0.026,0.0232,0.0224,0.0201,0.018,0.016,0.0173,0.0171,0.017,0.018,0.0127,0.0122,0.0175,0.0175,0.0175,0,0,0.0335,0.0336,0.0339,0.0334,0.0331,0.0327,0.032,0.0318,0.0308,0.0291,0.0279,0.0256,0.0223,0.0197,0.0187,0.0191,0.0143,0.0167,0.0166,0.0177,0.0124,0.0119,0.0115,0.0173,0.0174,0.0174,0,0,0.0342,0.0348,0.0355,0.0348,0.0348,0.0338,0.0339,0.0325,0.0316,0.0296,0.0276,0.0249,0.022,0.019,0.0171,0.0144,0.0134,0.014,0.0152,0.01,0.0096,0.0092,0.006,0.0052,0.0141,0.0141,0.0141,0,0.0351,0.0358,0.0352,0.0354,0.0356,0.0345,0.0347,0.0328,0.0306,0.0299,0.0298,0.0237,0.0214,0.0167,0.0161,0.0143,0.012,0.0166,0.01,0.0095,0.0091,0.0059,0.0051,0.0142,0.0142,0.0142,0.0142,0,0.0359,0.0367,0.037,0.0372,0.0367,0.0367,0.0348,0.0333,0.0327,0.0317,0.0279,0.0234,0.0204,0.0183,0.0168,0.0123,0.0119,0.0104,0.0111,0.0087,0.0054,0.0045,0.0142,0.0142,0.0142,0.0142,0,0,0.0373,0.0377,0.0382,0.0388,0.0379,0.0376,0.0354,0.0338,0.0328,0.0303,0.0285,0.023,0.0224,0.0199,0.0165,0.012,0.0069,0.0109,0.0106,0.0089,-0.0031,-0.0008,-0.0015,0.0044,0.0043,0.0042,-0.004,0,0.0386,0.0402,0.0394,0.0404,0.0412,0.0389,0.0375,0.0357,0.0332,0.031,0.0264,0.0246,0.0223,0.0213,0.016,0.009,0.0048,0.0094,-0.0014,-0.0017,0.0015,-0.0024,0.0037,-0.0047,-0.0049,-0.005,-0.0051,0,0.0401,0.0411,0.043,0.043,0.0432,0.044,0.0417,0.0399,0.0359,0.0342,0.0308,0.028,0.0221,0.0204,0.0077,0.011,0.0051,-0.0006,-0.0011,0.0003,-0.001,-0.0021,-0.0067,-0.0065,-0.0064,-0.0063,-0.0062,0,0.0426,0.0435,0.0457,0.0458,0.0453,0.0461,0.0464,0.0431,0.0424,0.038,0.038,0.0293,0.0272,0.0166,0.0062,0.0072,-0.0084,-0.0089,-0.0128,-0.0126,-0.0126,-0.0121,-0.0176,-0.0176,-0.0176,-0.0175,-0.0175,0,0.0443,0.0462,0.0483,0.0496,0.0522,0.0512,0.0526,0.0501,0.0485,0.0477,0.0425,0.0388,0.0265,0.0165,0.0058,-0.0061,-0.0088,-0.0127,-0.0151,-0.0119,-0.0112,-0.0132,-0.0126,-0.0178,-0.0178,-0.0177,-0.0177,0,0.0467,0.048,0.0506,0.0526,0.0539,0.0567,0.0597,0.06,0.0584,0.0562,0.0564,0.0475,0.0343,0.0201,0.0021,-0.0042,-0.0178,-0.0212,-0.0162,-0.0181,-0.0181,-0.0173,-0.0255,-0.0255,-0.0255,-0.0255,-0.0255,0,0.0479,0.05,0.0539,0.0564,0.0586,0.0627,0.0653,0.0656,0.0639,0.0596,0.0576,0.0488,0.0401,0.0177,0.002,-0.0181,-0.0199,-0.0246,-0.0214,-0.0177,-0.0192,-0.0184,-0.0176,-0.0254,-0.0254,-0.0254,-0.0254,0,0.0496,0.052,0.0537,0.0588,0.0637,0.0675,0.0702,0.0709,0.0682,0.0674,0.0598,0.0504,0.0358,0.018,0.0033,-0.0118,-0.0208,-0.0246,-0.0247,-0.0217,-0.0178,-0.0191,-0.0183,-0.0254,-0.0254,-0.0254,-0.0254,0,0.0508,0.0528,0.0553,0.0598,0.0648,0.0692,0.0721,0.0706,0.0707,0.0649,0.0613,0.048,0.0393,0.0211,0.0051,-0.0073,-0.009,-0.0102,-0.011,-0.0112,-0.0044,0.0028,-0.0008,0,0,0,0,0,0.0505,0.0525,0.0559,0.0599,0.0646,0.0687,0.0715,0.073,0.0706,0.0665,0.0643,0.0502,0.0322,0.0231,0.0111,0.0044,-0.0123,-0.0097,-0.0143,-0.0254,-0.0254,-0.0196,0,0,0,0,0,0,0.05,0.0534,0.0546,0.0578,0.0617,0.0675,0.0715,0.0721,0.0674,0.0642,0.0536,0.0494,0.0295,0.0386,0.0114,0.0074,0.0037,-0.0193,-0.0194,-0.0254,-0.0254,-0.0254,-0.0194,0,0,0,0,0]}]]